Home > Weather > Edinburgh > Past weeks

Flag for United Kingdom Weather for the Past 2 Weeks in Edinburgh, Scotland, United Kingdom

Now
32 °F

Passing clouds.


Feels Like: 25 °F
Forecast: 35 / 41 °F
Wind: 8 mph from West

Location: Edinburgh Airport

Current Time: Feb 10, 2016 at 6:50:24 AM

Latest Report: Feb 10, 2016 at 6:20 AM


Visibility: N/A

Pressure: 29.30 "Hg

Humidity: 93%

Dew point: 30 °F

Location of EdinburghLocation

Historic Weather in Edinburgh — Graph

°F

Edinburgh Temperature Yesterday

Maximum temperature yesterday: 45 °F (at 3:20 PM)
Minimum temperature yesterday: 36 °F (at 6:20 PM)
Average temperature yesterday: 40 °F

High & Low Weather Summary for the Past Weeks

 TemperatureHumidityPressure
High55 °F (Jan 26, 2:20 PM)100% (Jan 27, 3:50 AM)30.15 "Hg (Jan 27, 3:50 AM)
Low30 °F (Feb 10, 4:20 AM)53% (Feb 2, 3:20 PM)28.50 "Hg (Feb 8, 5:20 AM)
Average42 °F83%29.38 "Hg
* Reported Jan 26 5:20 AM — Feb 10 5:20 AM, Edinburgh, Weather by CustomWeather, © 2016

Note: Actual official high and low records may vary slightly from our data, if they occured in-between our weather recording intervals... More about our weather records

Advertising

Edinburgh Weather History for the Previous 24 Hours

 ConditionsComfort  
Time TempWeatherWind HumidityBarometerVisibility
5:20 AM
Wed, Feb 10
32 °FChilly.9 mph87%29.27 "HgN/A
4:50 AM30 °FChilly.7 mph86%29.27 "HgN/A
4:20 AM30 °FChilly.6 mph93%29.24 "HgN/A
3:50 AM36 °FChilly.7 mph81%29.24 "HgN/A
3:20 AM36 °FChilly.7 mph75%29.24 "HgN/A
2:50 AM37 °FChilly.5 mph75%29.21 "HgN/A
2:20 AM37 °FChilly.6 mph75%29.21 "HgN/A
1:50 AM39 °FChilly.6 mph70%29.21 "HgN/A
1:20 AM41 °FQuite cool.9 mph70%29.18 "HgN/A
12:50 AM41 °FQuite cool.7 mph70%29.18 "HgN/A
12:20 AM41 °FQuite cool.9 mph76%29.15 "HgN/A
11:50 PM
Tue, Feb 9
41 °FQuite cool.8 mph76%29.15 "HgN/A
11:20 PM41 °FPassing clouds.7 mph76%29.12 "HgN/A
10:50 PM41 °FQuite cool.6 mph76%29.09 "HgN/A
9:50 PM41 °FLight rain. Passing clouds.6 mph81%29.06 "HgN/A
9:20 PM39 °FMostly cloudy.6 mph87%29.03 "HgN/A
8:50 PM36 °FPartly cloudy.7 mph93%29.03 "HgN/A
8:20 PM36 °FLight rain. Passing clouds.6 mph93%29.00 "HgN/A
7:50 PM37 °FOvercast.6 mph93%29.00 "HgN/A
7:20 PM36 °FPassing clouds.7 mph93%28.97 "HgN/A
6:50 PM36 °FChilly.6 mph93%28.94 "HgN/A
6:20 PM36 °FChilly.8 mph93%28.94 "HgN/A
5:50 PM37 °FChilly.7 mph93%28.94 "HgN/A
5:20 PM37 °FPassing clouds.7 mph93%28.91 "HgN/A
4:50 PM39 °FScattered clouds.8 mph93%28.88 "HgN/A
4:20 PM41 °FQuite cool.8 mph87%28.88 "HgN/A
3:50 PM43 °FPartly sunny.7 mph87%28.88 "HgN/A
3:20 PM45 °FScattered clouds.7 mph81%28.88 "HgN/A
2:20 PM43 °FPartly sunny.9 mph87%28.85 "HgN/A
1:20 PM43 °FOvercast.10 mph87%28.85 "HgN/A
12:50 PM43 °FOvercast.10 mph87%28.85 "HgN/A
12:20 PM43 °FOvercast.13 mph87%28.85 "HgN/A
11:50 AM43 °FPartly sunny.15 mph87%28.85 "HgN/A
11:20 AM41 °FPartly sunny.12 mph93%28.85 "HgN/A
10:20 AM39 °FLight rain. Mostly cloudy.8 mph93%28.85 "HgN/A
9:50 AM39 °FLight rain. Mostly cloudy.10 mph93%28.85 "HgN/A
9:20 AM39 °FLight rain. Partly sunny.9 mph93%28.85 "HgN/A
8:50 AM39 °FLight rain. More clouds than sun.6 mph87%28.85 "HgN/A
8:20 AM39 °FLight rain. Partly sunny.13 mph93%28.82 "HgN/A
7:50 AM39 °FLight rain. Passing clouds.10 mph93%28.82 "HgN/A
7:20 AM41 °FLight rain. Overcast.17 mph87%28.82 "HgN/A
6:50 AM41 °FLight rain. Passing clouds.13 mph87%28.82 "HgN/A
Weather by CustomWeather, © 2016

See weather overviewHow to use our weather pages